User: anonymous   Login
Location: Unspecified
(0.0000°N, 0.0000°E)
Time: 14:43:34
(UTC+00:00)
Language:

Tubsat - Orbit

View from above orbital plane
View from above orbital plane
View from above satellite
View from above satellite

Ground track
Ground track

The orbit data is extracted from the following two-line orbital elements,

1 25757U 99029B   17206.28029931 +.00000108 +00000-0 +38575-4 0  9996
2 25757 098.4108 118.2192 0014419 178.9998 181.1227 14.51363399961992
Epoch (UTC): 25 July 2017 06:43:37
Eccentricity: 0.0014419
inclination: 98.4108°
perigee height: 711 km
apogee height: 731 km
right ascension of ascending node: 118.2192°
argument of perigee: 178.9998°
revolutions per day: 14.51363399
mean anomaly at epoch: 181.1227°
orbit number at epoch: 96199

The dashed part of the orbit path shows where the satellite is in the earth's shadow,  

DLR